Meteo pe oră la Alindao

Astăzi, 21 Ianuarie, Joi

Timp Temperatura Precipitaţii Vânt Presiune Umiditate
00:00 +23°C° 0 mm 1 m/s 719 mmHg 29%
01:00 +23°C° 0 mm 1 m/s 718 mmHg 29%
02:00 +22°C° 0 mm 1 m/s 719 mmHg 30%
03:00 +21°C° 0 mm 1 m/s 719 mmHg 31%
04:00 +20°C° 0 mm 1 m/s 719 mmHg 31%
05:00 +21°C° 0 mm 1 m/s 719 mmHg 30%
06:00 +21°C° 0 mm 1 m/s 720 mmHg 29%
07:00 +22°C° 0 mm 1 m/s 720 mmHg 28%
08:00 +26°C° 0 mm 2 m/s 720 mmHg 22%
09:00 +30°C° 0 mm 2 m/s 721 mmHg 17%
10:00 +35°C° 0 mm 2 m/s 721 mmHg 11%
11:00 +37°C° 0 mm 2 m/s 720 mmHg 11%
12:00 +39°C° 0 mm 2 m/s 720 mmHg 10%
13:00 +42°C° 0 mm 1 m/s 719 mmHg 9%
14:00 +41°C° 0 mm 1 m/s 718 mmHg 10%
15:00 +40°C° 0 mm 1 m/s 718 mmHg 10%
16:00 +40°C° 0 mm 1 m/s 717 mmHg 11%
17:00 +35°C° 0 mm 1 m/s 717 mmHg 15%
18:00 +29°C° 0 mm 0 m/s 717 mmHg 18%
19:00 +26°C° 0 mm 0 m/s 717 mmHg 21%
20:00 +25°C° 0 mm 0 m/s 717 mmHg 23%
21:00 +24°C° 0 mm 0 m/s 718 mmHg 24%
22:00 +23°C° 0 mm 0 m/s 718 mmHg 25%
23:00 +22°C° 0 mm 0 m/s 718 mmHg 26%

Mâine, 22 Ianuarie, Vineri

Timp Temperatura Precipitaţii Vânt Presiune Umiditate
00:00 +22°C° 0 mm 0 m/s 718 mmHg 27%
01:00 +23°C° 0 mm 1 m/s 718 mmHg 28%
02:00 +23°C° 0 mm 1 m/s 718 mmHg 29%
03:00 +22°C° 0 mm 1 m/s 718 mmHg 30%
04:00 +22°C° 0 mm 1 m/s 719 mmHg 31%
05:00 +23°C° 0 mm 1 m/s 719 mmHg 32%
06:00 +23°C° 0 mm 1 m/s 720 mmHg 32%
07:00 +24°C° 0 mm 1 m/s 720 mmHg 33%
08:00 +28°C° 0 mm 2 m/s 720 mmHg 26%
09:00 +32°C° 0 mm 2 m/s 720 mmHg 20%
10:00 +37°C° 0 mm 2 m/s 720 mmHg 13%
11:00 +40°C° 0 mm 2 m/s 719 mmHg 12%
12:00 +42°C° 0 mm 1 m/s 719 mmHg 11%
13:00 +45°C° 0 mm 1 m/s 718 mmHg 10%
14:00 +44°C° 0 mm 1 m/s 717 mmHg 10%
15:00 +43°C° 0 mm 1 m/s 716 mmHg 11%
16:00 +42°C° 0 mm 1 m/s 716 mmHg 11%
17:00 +37°C° 0 mm 1 m/s 716 mmHg 15%
18:00 +31°C° 0 mm 0 m/s 716 mmHg 18%
19:00 +27°C° 0 mm 0 m/s 716 mmHg 22%
20:00 +26°C° 0 mm 0 m/s 717 mmHg 23%
21:00 +25°C° 0 mm 0 m/s 717 mmHg 25%
22:00 +24°C° 0 mm 0 m/s 717 mmHg 26%
23:00 +26°C° 0 mm 1 m/s 718 mmHg 26%

Poimâine, 23 Ianuarie, Sâmbătă

Timp Temperatura Precipitaţii Vânt Presiune Umiditate
00:00 +26°C° 0 mm 1 m/s 718 mmHg 26%
01:00 +26°C° 0 mm 1 m/s 718 mmHg 27%
02:00 +26°C° 0 mm 1 m/s 718 mmHg 27%
03:00 +25°C° 0 mm 1 m/s 718 mmHg 27%
04:00 +23°C° 0 mm 0 m/s 718 mmHg 28%
05:00 +25°C° 0 mm 1 m/s 719 mmHg 29%
06:00 +25°C° 0 mm 1 m/s 719 mmHg 30%
07:00 +26°C° 0 mm 1 m/s 719 mmHg 31%
08:00 +30°C° 0 mm 2 m/s 719 mmHg 25%
09:00 +34°C° 0 mm 2 m/s 720 mmHg 19%
10:00 +38°C° 0 mm 2 m/s 720 mmHg 14%
11:00 +41°C° 0 mm 2 m/s 719 mmHg 13%
12:00 +43°C° 0 mm 1 m/s 718 mmHg 12%
13:00 +45°C° 0 mm 1 m/s 717 mmHg 11%
14:00 +44°C° 0 mm 1 m/s 717 mmHg 12%
15:00 +43°C° 0 mm 1 m/s 716 mmHg 12%
16:00 +42°C° 0 mm 1 m/s 715 mmHg 12%
17:00 +37°C° 0 mm 1 m/s 715 mmHg 16%
18:00 +31°C° 0 mm 0 m/s 715 mmHg 20%
19:00 +27°C° 0 mm 0 m/s 715 mmHg 24%
20:00 +27°C° 0 mm 0 m/s 716 mmHg 25%
21:00 +26°C° 0 mm 0 m/s 717 mmHg 26%
22:00 +25°C° 0 mm 0 m/s 717 mmHg 28%
23:00 +24°C° 0 mm 0 m/s 717 mmHg 29%

24 Ianuarie, Duminică

Timp Temperatura Precipitaţii Vânt Presiune Umiditate
00:00 +26°C° 0 mm 1 m/s 717 mmHg 30%
01:00 +25°C° 0 mm 1 m/s 717 mmHg 31%
02:00 +25°C° 0 mm 1 m/s 717 mmHg 31%
03:00 +25°C° 0 mm 1 m/s 717 mmHg 31%
04:00 +23°C° 0 mm 0 m/s 718 mmHg 31%
05:00 +23°C° 0 mm 0 m/s 718 mmHg 31%
06:00 +23°C° 0 mm 0 m/s 719 mmHg 31%
07:00 +24°C° 0 mm 0 m/s 719 mmHg 31%
08:00 +30°C° 0 mm 1 m/s 719 mmHg 26%
09:00 +33°C° 0 mm 1 m/s 720 mmHg 21%
10:00 +38°C° 0 mm 2 m/s 720 mmHg 17%
11:00 +39°C° 0 mm 2 m/s 719 mmHg 16%
12:00 +41°C° 0 mm 2 m/s 718 mmHg 15%
13:00 +43°C° 0 mm 2 m/s 717 mmHg 13%
14:00 +42°C° 0 mm 2 m/s 716 mmHg 14%
15:00 +41°C° 0 mm 2 m/s 716 mmHg 14%
16:00 +41°C° 0 mm 2 m/s 715 mmHg 14%
17:00 +37°C° 0 mm 1 m/s 715 mmHg 18%
18:00 +33°C° 0 mm 1 m/s 716 mmHg 23%
19:00 +30°C° 0 mm 1 m/s 716 mmHg 27%
20:00 +29°C° 0 mm 1 m/s 716 mmHg 31%
21:00 +27°C° 0 mm 1 m/s 717 mmHg 36%
22:00 +24°C° 0 mm 0 m/s 717 mmHg 40%
23:00 +23°C° 0 mm 0 m/s 717 mmHg 44%

25 Ianuarie, Luni

Timp Temperatura Precipitaţii Vânt Presiune Umiditate
00:00 +23°C° 0 mm 0 m/s 717 mmHg 47%
01:00 +22°C° 0 mm 0 m/s 717 mmHg 51%
02:00 +22°C° 0 mm 0 m/s 717 mmHg 53%
03:00 +21°C° 0 mm 0 m/s 717 mmHg 56%
04:00 +21°C° 0 mm 0 m/s 718 mmHg 59%
05:00 +22°C° 0 mm 0 m/s 718 mmHg 57%
06:00 +23°C° 0 mm 0 m/s 719 mmHg 56%
07:00 +24°C° 0 mm 0 m/s 719 mmHg 54%
08:00 +29°C° 0 mm 1 m/s 720 mmHg 47%
09:00 +32°C° 0 mm 2 m/s 720 mmHg 41%
10:00 +37°C° 0 mm 2 m/s 720 mmHg 34%
11:00 +38°C° 0 mm 2 m/s 720 mmHg 31%
12:00 +39°C° 0 mm 1 m/s 719 mmHg 28%
13:00 +40°C° 0 mm 1 m/s 718 mmHg 24%
14:00 +39°C° 0 mm 1 m/s 717 mmHg 27%
15:00 +37°C° 0 mm 1 m/s 717 mmHg 30%
16:00 +35°C° 0 mm 1 m/s 716 mmHg 32%
17:00 +33°C° 0 mm 1 m/s 716 mmHg 37%
18:00 +31°C° 0 mm 1 m/s 716 mmHg 42%
19:00 +29°C° 0 mm 1 m/s 717 mmHg 46%
20:00 +28°C° 0 mm 1 m/s 717 mmHg 49%
21:00 +27°C° 0 mm 1 m/s 717 mmHg 52%
22:00 +26°C° 0 mm 1 m/s 718 mmHg 55%
23:00 +26°C° 0 mm 1 m/s 718 mmHg 59%

26 Ianuarie, Marţi

Timp Temperatura Precipitaţii Vânt Presiune Umiditate
00:00 +25°C° 0 mm 1 m/s 718 mmHg 62%
01:00 +24°C° 0 mm 1 m/s 717 mmHg 65%
02:00 +24°C° 0 mm 1 m/s 718 mmHg 67%
03:00 +24°C° 0 mm 1 m/s 718 mmHg 68%
04:00 +22°C° 0 mm 0 m/s 718 mmHg 70%
05:00 +22°C° 0 mm 0 m/s 719 mmHg 69%
06:00 +25°C° 0 mm 1 m/s 719 mmHg 69%
07:00 +25°C° 0 mm 1 m/s 720 mmHg 68%
08:00 +28°C° 0 mm 1 m/s 720 mmHg 59%
09:00 +31°C° 0 mm 1 m/s 720 mmHg 50%
10:00 +36°C° 0 mm 2 m/s 720 mmHg 41%
11:00 +39°C° 0 mm 1 m/s 720 mmHg 35%
12:00 +42°C° 0 mm 1 m/s 719 mmHg 28%
13:00 +42°C° 0 mm 0 m/s 718 mmHg 22%
14:00 +39°C° 0 mm 0 m/s 718 mmHg 24%
15:00 +40°C° 0 mm 1 m/s 717 mmHg 26%
16:00 +37°C° 0 mm 1 m/s 716 mmHg 28%
17:00 +34°C° 0 mm 1 m/s 716 mmHg 33%
18:00 +32°C° 0 mm 1 m/s 717 mmHg 39%
19:00 +30°C° 0 mm 2 m/s 717 mmHg 44%
20:00 +28°C° 0 mm 2 m/s 717 mmHg 55%
21:00 +26°C° 0 mm 1 m/s 717 mmHg 66%
22:00 +24°C° 0 mm 1 m/s 718 mmHg 76%
23:00 +24°C° 0 mm 1 m/s 718 mmHg 79%
Arată mai mult

Formular de consimțământ

Meteoprog și furnizorii noștri de servicii pot stoca și accesa date personale, precum cookies, identificatori de dispozitiv sau alte tehnologii similare pe dispozitivul dumneavoastră și procesa astfel de date pentru a personaliza conținutul și reclamele, dar și pentru a oferi caracteristici de social media și pentru a analiza traficul.

  • Stocarea și/sau accesarea informațiilor pe dispozitivul dumneavoastră

    Cookies, identificatori de dispozitiv sau alte informații pot fi stocate sau accesate pe dispozitiv în scopurile indicate mai sus.

  • Reclame și conținut personalizat, evaluarea reclamelor și a conținutului, informații despre audiențe și dezvoltarea produselor

    Reclamele și conținutul pot fi personalizate pe baza unui profil. Pot fi adăugate date suplimentare pentru a personaliza mai bine reclamele și conținutul. Performanța reclamelor și conținutului poate fi măsurată. Pot fi obținute informații despre utilizatorii care au văzut reclamele și conținutul. Aceste date pot fi utilizate pentru a dezvolta sau îmbunătăți experiența utilizatorilor, sistemele și software-ul.

Dând clic pe ‘Sunt de acord’, permiteți utilizarea cookie-urilor menționate, a identificatorilor de dispozitiv, balizelor web sau altor tehnologii similare. Setările pot fi modificate din browser-ul dispozitivului dumneavoastră.

În anumite scopuri, interesele legitime pot prima asupra consimțământului. Puteți citi mai multe informații în acest sens în Politica privind Confidențialitatea Datelor și Cookie.